www.pogodaiklimat.ru
ПОГОДА в Чарваке

Архив погоды в Чарваке (Ташкентская область, Узбекистан)

Время
и дата
06:50 28.05
07:00 28.05
07:10 28.05
07:20 28.05
07:30 28.05
07:40 28.05
07:50 28.05
08:00 28.05
08:10 28.05
08:20 28.05
08:30 28.05
08:40 28.05
08:50 28.05
09:00 28.05
09:10 28.05
09:20 28.05
09:30 28.05
09:40 28.05
09:50 28.05
10:00 28.05
10:10 28.05
10:20 28.05
10:30 28.05
10:40 28.05
10:50 28.05
11:00 28.05
11:10 28.05
11:20 28.05
11:30 28.05
11:40 28.05
11:50 28.05
12:00 28.05
12:10 28.05
12:20 28.05
12:30 28.05
13:00 28.05
13:10 28.05
13:20 28.05
13:30 28.05
13:40 28.05
13:50 28.05
14:00 28.05
14:20 28.05
14:30 28.05
14:40 28.05
14:50 28.05
15:00 28.05
15:10 28.05
15:20 28.05
15:30 28.05
15:40 28.05
15:50 28.05
16:00 28.05
16:10 28.05
16:20 28.05
16:30 28.05
16:40 28.05
16:50 28.05
17:00 28.05
17:10 28.05
17:40 28.05
17:50 28.05
18:00 28.05
18:10 28.05
18:20 28.05
18:30 28.05
18:40 28.05
18:50 28.05
19:00 28.05
19:10 28.05
19:20 28.05
19:30 28.05
19:40 28.05
19:50 28.05
20:00 28.05
20:10 28.05
20:20 28.05
20:30 28.05
20:40 28.05
20:50 28.05
21:00 28.05
21:10 28.05
21:20 28.05
21:30 28.05
21:40 28.05
21:50 28.05
22:10 28.05
22:20 28.05
22:30 28.05
22:40 28.05
22:50 28.05
23:00 28.05
23:10 28.05
23:20 28.05
23:30 28.05
23:50 28.05
00:00 29.05
00:10 29.05
00:20 29.05
00:30 29.05
00:40 29.05
01:00 29.05
01:10 29.05
01:20 29.05
01:30 29.05
01:40 29.05
01:50 29.05
02:00 29.05
02:10 29.05
02:20 29.05
02:30 29.05
02:40 29.05
02:50 29.05
03:00 29.05
03:10 29.05
03:20 29.05
03:30 29.05
03:40 29.05
03:50 29.05
04:00 29.05
04:10 29.05
04:20 29.05
04:30 29.05
04:40 29.05
04:50 29.05
05:00 29.05
05:10 29.05
05:20 29.05
05:30 29.05
05:40 29.05
05:50 29.05
06:00 29.05
06:10 29.05
06:20 29.05
06:30 29.05
06:40 29.05
06:50 29.05
07:00 29.05
07:10 29.05
07:20 29.05
07:30 29.05
07:40 29.05
07:50 29.05
08:00 29.05
Ветер
(напр.,м/с)
Видимость Явления Солнечная радиация
(Вт/м2)
Т
(С)
Тd
(С)
f
(%)
Тe
(С)
Тes
(С)
Комфортность P
(гПа)
Po
(гПа)
Тmin
(С)
Tmax
(С)
R
(мм)
В 1.6
{3.3}
+14.7 +3.6 47 +15 +15 1018.5 906.4 +14.9 +14.4
В 1.6
{3.6}
+15.1 +3.3 45 +15 +15 1018.5 906.4 +15.1 +14.6
В 1.9
{5.9}
+15.7 +4.9 49 +16 +16 1018.4 906.3 +15.7 +15.1
В 2.6
{6.9}
+15.9 +4.2 46 +16 +16 1018.4 906.3 +15.8 +15.6
С 1.3
{2.2}
+15.7 +4.0 46 +16 +16 1018.4 906.3 +15.9 +15.6
В 1.0
{3.6}
+16.4 +3.8 43 +17 +17 1018.4 906.3 +16.4 +15.7
СВ 1.1
{2.6}
+17.2 +5.4 46 +18 +18 1018.4 906.3 +17.2 +16.4
СВ 1.1
{2.5}
+17.0 +4.4 43 +18 +18 1018.4 906.3 +17.2 +16.9
СВ 1.3
{3.7}
+17.8 +4.6 42 +19 +19 1018.3 906.2 +17.8 +17.0
В 1.6
{3.7}
+18.5 +4.8 40 +19 +19 1018.3 906.2 +18.5 +17.8
В 1.6
{3.4}
+18.8 +3.8 37 +20 +20 1018.3 906.2 +19.0 +18.5
СВ 1.4
{3.1}
+18.8 +2.8 35 +20 +20 1018.2 906.1 +19.1 +18.7
СВ 1.5
{3.0}
+19.0 +4.2 38 +20 +20 1018.2 906.1 +19.0 +18.7
В 1.1
{2.7}
+19.8 +6.3 41 +22 +22 комфорт 1018.1 906.0 +19.8 +18.9
В 1.5
{3.4}
+20.1 +3.6 34 +21 +21 комфорт 1018.1 906.0 +20.2 +19.8
В 1.2
{3.2}
+19.9 +5.9 40 +22 +22 комфорт 1017.9 905.9 +20.4 +19.7
СЗ 1.5
{3.2}
+19.8 +7.2 44 +21 +21 комфорт 1017.8 905.8 +19.9 +19.4
СЗ 1.3
{3.4}
+19.7 +6.6 42 +21 +21 комфорт 1017.8 905.8 +20.2 +19.7
СЗ 1.3
{2.2}
+19.7 +5.1 38 +21 +21 комфорт 1017.7 905.7 +19.7 +19.6
СЗ 1.4
{2.3}
+20.0 +5.1 38 +22 +22 комфорт 1017.7 905.7 +20.0 +19.7
З 1.0
{2.0}
+20.2 +5.2 37 +22 +22 комфорт 1017.7 905.7 +20.2 +19.9
СЗ 1.1
{2.0}
+20.3 +5.0 37 +22 +22 комфорт 1017.7 905.7 +20.5 +20.2
З 1.3
{2.0}
+20.0 +3.0 32 +21 +21 комфорт 1017.7 905.7 +20.3 +20.0
З 1.1
{1.8}
+20.4 +3.4 32 +22 +22 комфорт 1017.7 905.7 +20.4 +20.0
З 0.9
{1.5}
+21.0 +5.3 36 +23 +23 комфорт 1017.7 905.7 +21.0 +20.4
З 1.1
{2.6}
+22.0 +4.1 31 +22 +22 комфорт 1017.6 905.6 +22.0 +21.0
З 1.2
{3.0}
+22.0 +5.1 33 +22 +22 комфорт 1017.6 905.6 +22.0 +21.7
СЗ 1.1
{2.2}
0.1 +22.0 +4.9 33 +22 +22 комфорт 1017.6 905.6 +22.2 +21.9
З 1.4
{2.8}
0.5 +22.5 +3.9 30 +23 +23 комфорт 1017.5 905.5 +22.5 +21.9
З 1.1
{2.0}
+23.5 +3.1 26 +23 +23 комфорт 1017.5 905.5 +23.6 +22.5
СЗ 1.2
{2.1}
+23.5 +2.7 26 +23 +23 комфорт 1017.5 905.5 +23.5 +23.1
СЗ 1.7
{3.5}
+23.5 +5.1 30 +23 +23 комфорт 1017.4 905.4 +23.9 +23.5
СЗ 2.0
{3.9}
+24.1 +2.7 25 +23 +23 комфорт 1017.4 905.4 +24.1 +23.4
З 2.0
{4.0}
+24.2 +3.2 25 +23 +23 комфорт 1017.4 905.4 +24.2 +24.0
СЗ 2.8
{5.1}
4.8 +23.8 +6.8 33 +24 +24 комфорт 1017.4 905.4 +24.2 +23.7
З 4.3
{7.4}
10.2 +24.3 +7.5 34 +25 +25 комфорт 1017.2 905.2 +24.6 +24.3
З 4.6
{7.5}
6.8 +24.5 +6.3 31 +24 +24 комфорт 1017.2 905.2 +24.5 +24.2
З 4.5
{7.8}
1.4 +24.7 +5.6 29 +24 +24 комфорт 1017.1 905.1 +24.7 +24.4
З 5.0
{8.4}
+24.7 +4.3 27 +24 +24 комфорт 1017.1 905.1 +24.8 +24.5
З 5.0
{8.0}
+24.4 +4.7 28 +24 +24 комфорт 1017.1 905.1 +24.7 +24.3
З 5.4
{7.8}
+24.1 +7.0 33 +24 +24 комфорт 1017.2 905.2 +24.5 +24.0
З 5.1
{8.0}
+23.7 +6.2 33 +24 +24 комфорт 1017.1 905.1 +24.1 +23.6
З 3.7
{6.5}
+23.8 +8.1 37 +24 +24 комфорт 1017.2 905.2 +23.8 +23.6
З 4.3
{6.9}
+23.6 +8.0 37 +24 +24 комфорт 1017.1 905.1 +24.0 +23.3
З 4.1
{6.3}
+23.6 +8.2 37 +24 +24 комфорт 1017.1 905.1 +23.9 +23.6
З 3.7
{6.4}
+24.3 +7.2 34 +25 +25 комфорт 1017.1 905.1 +24.3 +23.6
З 3.4
{5.4}
+24.6 +7.2 33 +25 +25 комфорт 1017.1 905.1 +24.6 +24.3
СЗ 3.4
{5.6}
0.6 +23.7 +7.3 35 +24 +24 комфорт 1017.0 905.0 +24.6 +23.6
З 3.6
{6.0}
+23.6 +5.6 31 +24 +24 комфорт 1016.8 904.9 +24.3 +23.7
З 3.3
{5.8}
0.1 +23.5 +7.2 35 +24 +24 комфорт 1016.8 904.9 +23.6 +23.1
З 3.4
{5.3}
3.6 +23.2 +7.0 35 +24 +24 комфорт 1016.7 904.8 +24.0 +23.2
З 2.9
{5.4}
1.1 +22.1 +7.0 38 +23 +23 комфорт 1016.8 904.9 +23.2 +22.1
З 3.1
{6.3}
0.4 +21.4 +5.8 36 +22 +22 комфорт 1016.8 904.9 +22.1 +21.4
Ю 1.2
{4.1}
+21.7 +6.7 38 +22 +22 комфорт 1016.7 904.8 +21.7 +21.4
С 1.0
{2.1}
+22.5 +6.6 36 +23 +23 комфорт 1016.6 904.7 +22.5 +21.7
СЗ 2.2
{5.2}
+22.2 +5.4 34 +23 +23 комфорт 1016.7 904.8 +22.7 +22.2
З 2.7
{4.8}
+21.6 +6.9 38 +22 +22 комфорт 1016.6 904.7 +22.2 +21.6
З 3.2
{6.6}
+23.3 +5.4 31 +23 +23 комфорт 1016.6 904.7 +23.2 +21.6
З 3.7
{6.7}
1.1 +23.5 +6.0 32 +24 +24 комфорт 1016.5 904.6 +23.6 +23.3
З 4.3
{7.0}
1.8 +23.2 +6.3 34 +24 +24 комфорт 1016.5 904.6 +23.5 +23.2
З 3.5
{7.6}
0.4 +22.8 +6.7 35 +23 +23 комфорт 1016.5 904.6 +22.9 +22.8
З 4.4
{7.2}
0.1 +22.3 +8.0 40 +23 +23 комфорт 1016.4 904.5 +22.8 +22.3
СЗ 3.6
{6.0}
+22.1 +6.7 37 +23 +23 комфорт 1016.5 904.6 +22.3 +22.1
СЗ 4.5
{7.0}
+21.5 +6.6 38 +22 +22 комфорт 1016.5 904.6 +22.1 +21.5
СЗ 4.7
{7.3}
+21.1 +6.9 40 +22 +22 комфорт 1016.5 904.6 +21.5 +21.1
З 4.3
{7.7}
+20.8 +5.9 38 +22 +22 комфорт 1016.6 904.7 +21.1 +20.8
СЗ 4.5
{8.3}
+20.5 +6.9 41 +22 +22 комфорт 1016.7 904.8 +20.8 +20.5
СЗ 4.7
{9.0}
+20.1 +6.9 42 +21 +21 комфорт 1016.7 904.8 +20.5 +20.1
СЗ 4.2
{7.1}
+19.8 +6.3 41 +21 +21 комфорт 1016.8 904.9 +20.1 +19.8
З 4.0
{7.9}
+19.5 +5.8 41 +20 +20 1017.1 905.1 +19.8 +19.5
З 2.4
{6.2}
+19.0 +5.9 42 +20 +20 1017.3 905.3 +19.5 +19.0
З 3.2
{7.0}
+18.7 +5.2 41 +19 +19 1017.3 905.3 +19.0 +18.7
ЮЗ 2.1
{6.8}
+18.3 +4.9 41 +19 +19 1017.3 905.3 +18.7 +18.2
Ю 1.3
{3.1}
+17.8 +5.0 43 +19 +19 1017.4 905.4 +18.3 +17.8
ЮЗ 0.7
{2.5}
+17.3 +4.9 44 +19 +19 1017.5 905.5 +17.8 +17.3
ЮЗ 0.8
{3.3}
+17.3 +5.2 45 +19 +19 1017.5 905.5 +17.3 +17.1
Ю 1.2
{2.3}
+15.8 +6.2 53 +16 +16 1017.6 905.6 +17.3 +15.8
Ю 1.2
{2.8}
+15.0 +6.7 57 +15 +15 1017.7 905.7 +15.8 +15.1
Ю 1.7
{3.3}
+15.6 +4.5 48 +16 +16 1017.8 905.8 +15.6 +14.9
ЮЗ 1.1
{3.5}
+16.2 +4.3 45 +17 +17 1017.8 905.8 +16.2 +15.6
Ю 1.6
{3.5}
+15.1 +6.3 56 +15 +15 1017.9 905.9 +16.2 +15.1
Ю 1.3
{3.2}
+14.1 +6.9 62 +14 +14 1018.1 906.0 +15.1 +14.1
ЮВ 1.9
{4.4}
+13.7 +6.5 62 +13 +13 1018.3 906.2 +14.1 +13.7
Ю 1.8
{3.0}
+13.5 +6.7 63 +13 +13 1018.3 906.2 +13.8 +13.5
Ю 1.3
{2.7}
+13.0 +7.1 67 +13 +13 1018.4 906.3 +13.5 +13.0
Ю 1.4
{3.1}
+12.9 +6.8 66 +13 +13 1018.4 906.3 +13.0 +12.9
Ю 1.9
{3.0}
+14.0 +6.1 59 +14 +14 1018.4 906.3 +14.0 +13.5
Ю 1.2
{2.5}
+13.7 +6.1 60 +14 +14 1018.4 906.3 +14.0 +13.6
Ю 1.8
{2.8}
+13.1 +6.3 63 +13 +13 1018.3 906.2 +13.8 +13.1
Ю 1.7
{2.6}
+12.4 +6.7 68 +12 +12 1018.3 906.2 +13.1 +12.5
Ю 1.6
{3.3}
+12.3 +6.1 66 +12 +12 1018.3 906.2 +12.4 +12.1
Ю 2.1
{3.0}
+12.1 +6.5 69 +11 +11 1018.4 906.3 +12.4 +12.1
Ю 1.4
{2.9}
+11.7 +6.5 70 +11 +11 1018.5 906.4 +12.1 +11.7
Ю 1.5
{2.9}
+11.7 +6.4 70 +11 +11 1018.5 906.4 +11.7 +11.6
Ю 2.0
{3.2}
+12.0 +6.0 67 +11 +11 1018.6 906.5 +12.0 +11.7
Ю 1.3
{3.2}
+12.0 +6.1 67 +12 +12 1018.6 906.5 +12.4 +12.0
Ю 1.0
{3.0}
+11.6 +6.0 68 +12 +12 1018.7 906.6 +12.0 +11.6
Ю 1.0
{2.5}
+11.4 +6.1 70 +11 +11 1018.7 906.6 +11.6 +11.4
Ю 1.2
{3.6}
+11.2 +6.1 71 +11 +11 1018.8 906.7 +11.4 +11.2
Ю 1.1
{3.2}
+11.0 +6.3 73 +11 +11 1018.8 906.7 +11.2 +11.0
ЮВ 1.3
{3.0}
+11.0 +6.3 73 +10 +10 1018.8 906.7 +11.0 +10.9
ЮВ 1.5
{2.8}
+11.4 +6.0 69 +11 +11 1018.8 906.7 +11.4 +11.1
Ю 1.4
{2.8}
+11.8 +5.3 64 +11 +11 1018.8 906.7 +11.8 +11.4
Ю 1.2
{3.1}
+11.6 +5.6 66 +11 +11 1018.8 906.7 +12.0 +11.6
Ю 0.9
{2.3}
+11.7 +6.6 71 +12 +12 1018.7 906.6 +11.7 +11.5
Ю 1.1
{1.9}
+11.5 +5.8 68 +11 +11 1018.7 906.6 +11.7 +11.3
Ю 1.1
{2.7}
+11.5 +5.8 68 +11 +11 1018.7 906.6 +11.5 +11.4
Ю 1.3
{2.3}
+11.3 +6.1 70 +11 +11 1018.7 906.6 +11.5 +11.3
Ю 1.3
{2.4}
+10.9 +6.0 72 +10 +10 1018.7 906.6 +11.3 +10.9
Ю 1.6
{2.5}
+10.8 +5.9 72 +10 +10 1018.7 906.6 +10.9 +10.8
ЮЗ 1.0
{2.0}
+10.8 +5.8 71 +11 +11 1018.7 906.6 +10.8 +10.6
ЮЗ 0.8
{1.6}
+10.6 +6.8 77 +11 +11 1018.7 906.6 +10.9 +10.6
ЮЗ 0.8
{1.2}
+10.5 +9.5 94 +10 +10 1018.7 906.6 +10.6 +10.5
З 0.8
{1.6}
+10.1 +10.1 100 +10 +10 1018.7 906.6 +10.5 +9.9
СЗ 0.9
{1.6}
+10.5 +10.5 100 +10 +10 1018.7 906.6 +10.6 +10.1
З 0.5
{1.1}
+10.2 +10.2 100 +11 +11 1018.7 906.6 +10.5 +10.2
СЗ 0.5
{1.6}
+9.9 +9.9 100 +10 +10 1018.7 906.6 +10.2 +9.7
Ю 0.9
{2.2}
+9.6 +9.6 100 +9 +9 1018.7 906.6 +9.9 +9.3
ЮЗ 1.1
{2.2}
+9.9 +9.9 100 +9 +9 1018.7 906.6 +10.0 +9.6
ЮЗ 0.8
{1.5}
+9.4 +9.4 100 +9 +9 1018.7 906.6 +9.9 +9.4
СЗ 0.7
{1.9}
+9.7 +9.7 100 +9 +9 1018.8 906.7 +10.1 +9.4
Ю 0.9
{1.6}
+9.6 +9.6 100 +9 +9 1018.8 906.7 +9.7 +9.2
Ю 1.3
{2.7}
+9.6 +9.6 100 +8 +8 1018.8 906.7 +9.6 +9.5
Ю 1.7
{3.0}
+9.5 +9.5 100 +8 +8 1018.7 906.6 +9.8 +9.5
Ю 1.5
{2.9}
+9.4 +9.4 100 +8 +8 1018.7 906.6 +9.6 +9.4
Ю 1.0
{2.2}
+8.8 +8.8 100 +8 +8 1018.7 906.6 +9.4 +8.8
Ю 1.1
{2.0}
+8.6 +8.6 100 +8 +8 1018.8 906.7 +8.8 +8.6
ЮВ 1.4
{2.4}
+8.6 +8.6 100 +7 +7 1018.8 906.7 +8.6 +8.5
Ю 1.4
{2.1}
+8.8 +8.8 100 +7 +7 1018.9 906.8 +8.8 +8.6
Ю 1.3
{2.3}
+8.9 +8.9 100 +8 +8 1018.8 906.7 +8.9 +8.8
Ю 1.1
{1.8}
+9.6 +9.6 100 +9 +9 1018.9 906.8 +9.6 +8.9
СЗ 1.0
{1.8}
+10.9 +10.9 100 +10 +10 1018.9 906.8 +10.8 +9.6
З 0.7
{1.5}
+11.6 +11.6 100 +12 +12 1018.8 906.7 +11.6 +10.9
З 1.2
{1.7}
+12.1 +12.1 100 +12 +12 1018.8 906.7 +12.1 +11.6
З 0.9
{1.4}
+12.7 +12.7 100 +13 +13 1018.8 906.7 +12.7 +12.1
СЗ 0.6
{1.4}
+13.3 +13.3 100 +14 +14 1018.8 906.7 +13.3 +12.7
З 0.9
{1.7}
+13.3 +13.3 100 +13 +13 1018.7 906.6 +13.3 +13.1
С 0.4
{1.4}
+14.2 +12.6 90 +15 +15 1018.7 906.6 +14.2 +13.3
СЗ 0.8
{1.5}
+14.2 +13.5 96 +15 +15 1018.7 906.6 +14.4 +14.2
СЗ 1.2
{1.6}
+14.0 +12.4 90 +14 +14 1018.7 906.6 +14.3 +14.0
СЗ 1.1
{2.0}
+14.4 +14.2 99 +15 +15 1018.6 906.5 +14.4 +14.0
СЗ 1.3
{2.2}
+14.6 +13.0 90 +15 +15 1018.7 906.6 +14.5 +14.3
СЗ 0.9
{1.8}
+15.1 +11.1 77 +16 +16 1018.7 906.6 +15.0 +14.6
СЗ 0.9
{2.1}
+15.6 +11.0 74 +16 +16 1018.7 906.6 +15.7 +15.1
Местоположение метеостанции Чарвак (Ташкентская область, Узбекистан): широта 41.62 долгота 70.04 высота над уровнем моря 0 м.
В архиве по умолчанию представлена погода в Чарваке за последние 1-2 суток. Обновление информации о фактической погоде в базе происходит ежечасно! Архивные данные за месяц целиком и за предыдущие месяцы Вы можете получить, выбрав интересующий диапазон дат из раскрывающегося списка и нажав кнопку "Ввод!".
*Определитесь, кто Вы:
Внимание! Время в таблицах - местное (без учета летнего времени). Для получения всемирного времени необходимо вычесть поправку, которая равна 5 ч.
Смотрите также архив погоды на ближайших метеорологических станциях:
Партнеры нашего сайта:      
Пояснения к столбцам:
  • Ветер - указаны скорость ветра в м/с - средняя за 10 мин, порывы в срок и между сроками (в фигурных скобках) и направление, откуда дует ветер: С - северный,
  • СВ - северо-восточный, В - восточный, ЮВ - юго-восточный, Ю - южный, ЮЗ - юго-западный, З - западный, СЗ - северо-западный.
  • Видимость - горизонтальная дальность видимости в метрах или километрах. При видимости от 1 до 10 км при отсутствии осадков обычно наблюдается дымка, при ухудшении видимости до 1 км и менее - туман. В сухую погоду видимость может ухудшаться дымом, пылью или мглою.
  • Явления - указаны атмосферные явления, наблюдавшиеся в срок или в последний час перед сроком.
  • Солнечная радиация - мощность потока солнечного излучения на поверхность земли и предметов в Вт/м2.
  • T - Температура воздуха - температура, измеренная на высоте 2 м над землей.
  • Td - Температура точки росы - температура, при понижении до которой содержащийся в воздухе водяной пар достигнет насыщения.
  • f - Относительная влажность воздуха - влажноcть воздуха, измеренная на высоте 2 м над землей.
  • Te - Эффективная температура - температура, которую ощущает одетый по сезону человек в тени. Характеристика душности погоды. При расчете учитывается влияние влажности воздуха и скорости ветра на теплоощущения человека.
  • Tes - Эффективная температура на солнце - температура, которую ощущает человек, с поправкой на солнечный нагрев. Характеристика знойности погоды. Зависит от высоты солнца над горизонтом, облачности и скорости ветра. Ночью, в пасмурную погоду, а также при ветре 12 м/с и более поправка равна нулю.
  • P - Атмосферное давление - приведенное к уровню моря атмосферное давление.
  • Po - Атмосферное давление - измеренное на уровне метеостанции атмосферное давление.
  • Tmin - Минимальная температура - минимум температуры воздуха на высоте 2 м над землей.
  • Tmax - Максимальная температура - максимум температуры воздуха на высоте 2 м над землей.
  • R - Количество осадков - Количество выпавших осадков за период времени, мм. При наведении курсора мыши на число - период времени, за который выпало указанное количество осадков.